Location: Fort Worth, Tx
(32.7431°N, 97.3695°W)
Time: 10:02:20
(UTC-04:00)

A-11 Canister half - Pass Details

Date: 16 August 2024
Orbit: 1524 x 1684 km, 47.3° (Epoch: 13 September)

Event Time Altitude Azimuth Distance (km) Brightness Sun altitude
Rises 03:51:49 0° 295° (WNW) 4,934 11.7 -40.1°
Reaches altitude 10° 03:55:25 10° 304° (WNW) 3,949 11.2 -39.8°
Maximum altitude 04:04:35 36° 8° (N) 2,429 10.3 -38.9°
Drops below altitude 10° 04:13:38 10° 73° (ENE) 3,901 11.6 -37.9°
Sets 04:17:09 0° 82° (E) 4,867 12.1 -37.5°
